• In Czech Republic
  • List of Countries
  • For 7 days
  • Water Temperature
  • Satellite Maps
  • Weather Map
  • Weather Widgets
  • user-avatar
    Login

    Hourly Weather Wegielnia

    Today, 20 September, Thursday

    Time Temperature Precipitation Wind Pressure Humidity
    00:00 +16°C° 0 mm 1 mps 746 mmHg 88%
    01:00 +16°C° 0 mm 1 mps 746 mmHg 88%
    02:00 +16°C° 0 mm 1 mps 746 mmHg 88%
    03:00 +16°C° 0 mm 1 mps 746 mmHg 88%
    04:00 +16°C° 0 mm 1 mps 746 mmHg 89%
    05:00 +16°C° 0 mm 1 mps 746 mmHg 89%
    06:00 +16°C° 0 mm 1 mps 746 mmHg 87%
    07:00 +17°C° 0 mm 2 mps 746 mmHg 84%
    08:00 +18°C° 0 mm 2 mps 746 mmHg 78%
    09:00 +20°C° 0 mm 2 mps 746 mmHg 71%
    10:00 +23°C° 0 mm 2 mps 747 mmHg 63%
    11:00 +25°C° 0 mm 3 mps 747 mmHg 56%
    12:00 +26°C° 0 mm 3 mps 747 mmHg 53%
    13:00 +27°C° 0 mm 3 mps 746 mmHg 49%
    14:00 +28°C° 0 mm 3 mps 746 mmHg 46%
    15:00 +28°C° 0 mm 3 mps 746 mmHg 50%
    16:00 +27°C° 0 mm 2 mps 746 mmHg 53%
    17:00 +27°C° 0 mm 2 mps 746 mmHg 56%
    18:00 +25°C° 0 mm 2 mps 746 mmHg 60%
    19:00 +24°C° 0 mm 2 mps 746 mmHg 64%
    20:00 +21°C° 0 mm 2 mps 746 mmHg 68%
    21:00 +20°C° 0 mm 3 mps 746 mmHg 69%
    22:00 +20°C° 0 mm 3 mps 745 mmHg 70%
    23:00 +19°C° 0 mm 3 mps 745 mmHg 71%

    Tomorrow, 21 September, Friday

    Time Temperature Precipitation Wind Pressure Humidity
    00:00 +19°C° 0 mm 3 mps 745 mmHg 73%
    01:00 +18°C° 0 mm 3 mps 745 mmHg 74%
    02:00 +18°C° 0 mm 2 mps 745 mmHg 76%
    03:00 +18°C° 0 mm 3 mps 745 mmHg 76%
    04:00 +17°C° 0 mm 3 mps 745 mmHg 77%
    05:00 +17°C° 0 mm 3 mps 745 mmHg 77%
    06:00 +18°C° 0 mm 3 mps 745 mmHg 75%
    07:00 +18°C° 0 mm 3 mps 745 mmHg 72%
    08:00 +19°C° 0 mm 4 mps 745 mmHg 69%
    09:00 +21°C° 0 mm 4 mps 744 mmHg 63%
    10:00 +23°C° 0 mm 5 mps 744 mmHg 58%
    11:00 +26°C° 0 mm 5 mps 744 mmHg 52%
    12:00 +26°C° 0 mm 5 mps 744 mmHg 49%
    13:00 +27°C° 0 mm 6 mps 743 mmHg 46%
    14:00 +27°C° 0 mm 6 mps 743 mmHg 43%
    15:00 +26°C° 0 mm 5 mps 742 mmHg 46%
    16:00 +26°C° 0 mm 5 mps 741 mmHg 48%
    17:00 +25°C° 0 mm 5 mps 741 mmHg 51%
    18:00 +23°C° 0 mm 5 mps 740 mmHg 52%
    19:00 +22°C° 0 mm 5 mps 740 mmHg 52%
    20:00 +20°C° 0 mm 6 mps 739 mmHg 53%
    21:00 +20°C° 0 mm 6 mps 739 mmHg 54%
    22:00 +20°C° 0 mm 6 mps 738 mmHg 55%
    23:00 +20°C° 0 mm 6 mps 738 mmHg 57%

    Day after tomorrow, 22 September, Saturday

    Time Temperature Precipitation Wind Pressure Humidity
    00:00 +20°C° 0 mm 6 mps 738 mmHg 60%
    01:00 +19°C° 0 mm 6 mps 738 mmHg 62%
    02:00 +19°C° 0 mm 6 mps 738 mmHg 65%
    03:00 +16°C° 1.1 mm 6 mps 739 mmHg 73%
    04:00 +14°C° 1.1 mm 6 mps 739 mmHg 80%
    05:00 +10°C° 1.1 mm 6 mps 740 mmHg 87%
    06:00 +10°C° 0.1 mm 5 mps 740 mmHg 85%
    07:00 +10°C° 0.1 mm 5 mps 741 mmHg 82%
    08:00 +10°C° 0.1 mm 5 mps 742 mmHg 80%
    09:00 +10°C° 0 mm 5 mps 742 mmHg 75%
    10:00 +11°C° 0 mm 6 mps 742 mmHg 69%
    11:00 +11°C° 0 mm 6 mps 743 mmHg 64%
    12:00 +13°C° 0 mm 6 mps 743 mmHg 61%
    13:00 +14°C° 0 mm 5 mps 743 mmHg 57%
    14:00 +15°C° 0 mm 5 mps 743 mmHg 54%
    15:00 +15°C° 0.2 mm 5 mps 743 mmHg 56%
    16:00 +14°C° 0.2 mm 4 mps 743 mmHg 58%
    17:00 +14°C° 0.2 mm 4 mps 743 mmHg 60%
    18:00 +13°C° 0.1 mm 4 mps 743 mmHg 65%
    19:00 +11°C° 0.1 mm 3 mps 743 mmHg 70%
    20:00 +10°C° 0.1 mm 3 mps 743 mmHg 76%
    21:00 +10°C° 0 mm 3 mps 743 mmHg 77%
    22:00 +8°C° 0 mm 4 mps 743 mmHg 78%
    23:00 +8°C° 0 mm 4 mps 743 mmHg 79%

    23 September, Sunday

    Time Temperature Precipitation Wind Pressure Humidity
    00:00 +8°C° 0 mm 4 mps 743 mmHg 80%
    01:00 +8°C° 0 mm 4 mps 743 mmHg 81%
    02:00 +8°C° 0 mm 4 mps 742 mmHg 81%
    03:00 +7°C° 0 mm 4 mps 742 mmHg 82%
    04:00 +7°C° 0 mm 5 mps 742 mmHg 83%
    05:00 +7°C° 0 mm 5 mps 742 mmHg 84%
    06:00 +7°C° 0 mm 5 mps 742 mmHg 82%
    07:00 +8°C° 0 mm 5 mps 742 mmHg 80%
    08:00 +8°C° 0 mm 6 mps 743 mmHg 77%
    09:00 +10°C° 0 mm 6 mps 742 mmHg 72%
    10:00 +11°C° 0 mm 6 mps 742 mmHg 66%
    11:00 +13°C° 0 mm 6 mps 742 mmHg 60%
    12:00 +14°C° 0 mm 6 mps 742 mmHg 56%
    13:00 +14°C° 0 mm 6 mps 742 mmHg 53%
    14:00 +15°C° 0 mm 6 mps 741 mmHg 49%
    15:00 +14°C° 0 mm 5 mps 741 mmHg 51%
    16:00 +14°C° 0 mm 4 mps 741 mmHg 54%
    17:00 +13°C° 0 mm 4 mps 740 mmHg 56%
    18:00 +12°C° 0.3 mm 3 mps 740 mmHg 65%
    19:00 +11°C° 0.3 mm 3 mps 739 mmHg 75%
    20:00 +10°C° 0.3 mm 3 mps 739 mmHg 84%
    21:00 +9°C° 0.9 mm 3 mps 737 mmHg 87%
    22:00 +8°C° 0.9 mm 4 mps 736 mmHg 90%
    23:00 +8°C° 0.9 mm 4 mps 735 mmHg 93%

    24 September, Monday

    Time Temperature Precipitation Wind Pressure Humidity
    00:00 +8°C° 1.9 mm 5 mps 733 mmHg 93%
    01:00 +9°C° 1.9 mm 5 mps 732 mmHg 93%
    02:00 +9°C° 1.9 mm 6 mps 730 mmHg 93%
    03:00 +10°C° 1.6 mm 5 mps 728 mmHg 94%
    04:00 +12°C° 1.6 mm 5 mps 727 mmHg 95%
    05:00 +13°C° 1.6 mm 5 mps 726 mmHg 95%
    06:00 +13°C° 0.7 mm 5 mps 726 mmHg 94%
    07:00 +11°C° 0.7 mm 6 mps 726 mmHg 92%
    08:00 +11°C° 0.7 mm 6 mps 726 mmHg 91%
    09:00 +10°C° 0.5 mm 8 mps 727 mmHg 90%
    10:00 +7°C° 0.5 mm 9 mps 728 mmHg 88%
    11:00 +6°C° 0.5 mm 10 mps 729 mmHg 86%
    12:00 +7°C° 0.2 mm 10 mps 730 mmHg 80%
    13:00 +8°C° 0.2 mm 9 mps 732 mmHg 74%
    14:00 +10°C° 0.2 mm 9 mps 734 mmHg 67%
    15:00 +10°C° 0.3 mm 8 mps 735 mmHg 70%
    16:00 +9°C° 0.3 mm 7 mps 737 mmHg 72%
    17:00 +9°C° 0.3 mm 7 mps 738 mmHg 75%
    18:00 +8°C° 0.4 mm 7 mps 739 mmHg 78%
    19:00 +6°C° 0.4 mm 7 mps 740 mmHg 80%
    20:00 +6°C° 0.4 mm 7 mps 741 mmHg 83%
    21:00 +5°C° 0.1 mm 7 mps 742 mmHg 83%
    22:00 +4°C° 0.1 mm 6 mps 743 mmHg 82%
    23:00 +4°C° 0.1 mm 6 mps 744 mmHg 82%

    25 September, Tuesday

    Time Temperature Precipitation Wind Pressure Humidity
    00:00 +3°C° 0 mm 5 mps 744 mmHg 82%
    01:00 +3°C° 0 mm 5 mps 745 mmHg 82%
    02:00 +3°C° 0 mm 5 mps 745 mmHg 82%
    03:00 +3°C° 0 mm 5 mps 746 mmHg 82%
    04:00 +3°C° 0 mm 4 mps 746 mmHg 82%
    05:00 +3°C° 0 mm 4 mps 747 mmHg 82%
    06:00 +3°C° 0 mm 5 mps 747 mmHg 80%
    07:00 +3°C° 0 mm 5 mps 747 mmHg 78%
    08:00 +5°C° 0 mm 5 mps 747 mmHg 76%
    09:00 +5°C° 0.1 mm 6 mps 748 mmHg 71%
    10:00 +8°C° 0.1 mm 6 mps 748 mmHg 66%
    11:00 +9°C° 0.1 mm 7 mps 748 mmHg 61%
    12:00 +10°C° 0.2 mm 7 mps 747 mmHg 60%
    13:00 +10°C° 0.2 mm 6 mps 747 mmHg 60%
    14:00 +11°C° 0.2 mm 6 mps 746 mmHg 59%
    15:00 +10°C° 0.4 mm 6 mps 746 mmHg 65%
    16:00 +9°C° 0.4 mm 5 mps 745 mmHg 72%
    17:00 +8°C° 0.4 mm 5 mps 744 mmHg 78%
    18:00 +7°C° 0.4 mm 5 mps 745 mmHg 82%
    19:00 +7°C° 0.4 mm 4 mps 745 mmHg 86%
    20:00 +6°C° 0.4 mm 4 mps 745 mmHg 90%
    21:00 +6°C° 0 mm 4 mps 745 mmHg 90%
    22:00 +5°C° 0 mm 4 mps 746 mmHg 90%
    23:00 +5°C° 0 mm 4 mps 746 mmHg 91%
    Show more